Welcome to the New NWS' Forecast!
Most changes are behind the scenes, but click here for differences you might notice.

Regional Weather Roundup (RWR)

Issued by San Diego, CA (SGX)

                            
612 
ASUS46 KSGX 201211
RWRSGX

SAN DIEGO HOURLY WEATHER ROUNDUP
NATIONAL WEATHER SERVICE SAN DIEGO CA
500 AM PDT MON AUG 20 2018

NOTE: "FAIR" INDICATES FEW OR NO CLOUDS BELOW 12,000 FEET WITH NO 
SIGNIFICANT WEATHER AND/OR OBSTRUCTIONS TO VISIBILITY.

CAZ042-043-060-061-PZZ750-775-201300-

GREATER SAN DIEGO AREA
  
CITY           SKY/WX    TMP DP  RH WIND       PRES   REMARKS
SAN DIEGO AP   CLOUDY    73  65  75 S8        29.92S                  
NATIONAL CITY    N/A     72  67  84 CALM      29.92S                  
CHULA VISTA      N/A     71  67  88 CALM      29.82F                  
IMPERIAL BEACH CLOUDY    71  65  81 S5        29.91S                  
BROWN FIELD    CLOUDY    70  65  84 SW6       29.92S                  
MIRAMAR MCAS   CLOUDY    73  65  75 S5        29.91S                  
MONTGOMERY FLD CLOUDY    71  65  81 SE6       29.91F                  
GILLESPIE FLD  CLOUDY    70  64  83 CALM      29.91S                  

$$

NORTH SAN DIEGO COUNTY
  
CITY           SKY/WX    TMP DP  RH WIND       PRES   REMARKS
CAMP PENDLETON CLOUDY    70  65  84 NE3       29.90S                  
OCEANSIDE AP   CLOUDY    73  66  78 SW6       29.89S                  
VISTA            N/A     70  65  84 CALM      29.88S                  
CARLSBAD       CLOUDY    71  66  84 SE6       29.90S                  
DEL MAR          N/A     70  67  90 CALM      29.91S                  
LA JOLLA SCRIP   N/A     70  67  89 SE3       29.90R                  
ESCONDIDO        N/A     69  65  86 S3        29.90F                  
SAN MARCOS       N/A     68  65  88 CALM      29.93F                  
POWAY            N/A     69  65  85 CALM      29.89S                  

$$

EAST SAN DIEGO COUNTY
  
CITY           SKY/WX    TMP DP  RH WIND       PRES   REMARKS
RAMONA         CLEAR     65  62  90 CALM      29.94S                  
LA MESA          N/A     68  65  89 CALM      29.85R                  
JAMUL            N/A     66  64  91 CALM      29.89S                  
CAMPO            N/A     63  55  75 NE5       29.95S                  

$$

ORANGE COUNTY AND THE LOS ANGELES BASIN
  
CITY           SKY/WX    TMP DP  RH WIND       PRES   REMARKS
JOHN WAYNE AP  CLOUDY    73  65  75 S6        29.89S                  
LAKE FOREST FR   N/A     67  62  86 SE1       29.79R                  
HUNTINGTON BCH   N/A     71  68  90 S6        29.91R                  
LOS ALAMITOS   CLOUDY    71  67  85 S3        29.89S                  
FULLERTON      CLOUDY    72  65  78 SE3       29.89S                  
LONG BEACH     CLOUDY    72  66  81 CALM      29.89S                  
L.A. AP        CLOUDY    72  66  81 E3        29.90R                  
L.A. DOWNTOWN  CLOUDY    72  66  81 CALM      29.89S                  

$$

THE INLAND EMPIRE
  
CITY           SKY/WX    TMP DP  RH WIND       PRES   REMARKS
CORONA         CLEAR     68  65  90 W3        29.91R                  
CHINO          CLEAR     70  65  84 W7        29.92R HAZE             
ONTARIO        CLEAR     69  63  81 W8        29.91S                  
SAN BERNARDINO FAIR      72  61  69 W5        29.92S                  
RIVERSIDE AP   CLEAR     69  64  84 W5        29.91S                  
MORENO VALLEY    N/A     69  64  86 CALM      28.04S                  
MARCH ARB      CLEAR     68  62  82 CALM      29.93R                  
HORSETHIEF CYN   N/A     68  59  73 CALM      29.87R                  
PERRIS           N/A     69  64  83 SE5         N/A                   
HEMET EAST       N/A     70  58  66 CALM      29.80R                  
FRENCH VALLEY  PTSUNNY   66  64  94 S5        29.94S                  
TEMECULA         N/A     68  66  93 CALM      30.00R                  

$$

SAN BERNARDINO AND RIVERSIDE COUNTY MOUNTAINS
  
CITY           SKY/WX    TMP DP  RH WIND       PRES   REMARKS
BIG BEAR AP    CLEAR     52  48  87 CALM      30.25S                  
ANGELUS OAKS     N/A     66  53  62 CALM      29.69F                  

$$

SOUTHERN DESERT INCLUDING THE COACHELLA VALLEY
  
CITY           SKY/WX    TMP DP  RH WIND       PRES   REMARKS
PALM SPRINGS   CLEAR     88  62  41 CALM      29.78S                  
THOUSAND PALMS   N/A     90  61  37 NW10      29.71S                  
PALM DESERT      N/A     87  64  46 CALM      29.23S                  
THERMAL        CLEAR     83  63  50 SE3       29.72R                  
BLYTHE         CLEAR     89  65  44 S12       29.77R                  
IMPERIAL AP    CLEAR     88  75  65 SE10      29.72S HX  97           
EL CENTRO NAS  CLEAR     86  74  67 SE10      29.74R                  
YUMA AZ        CLEAR     88  63  43 S5        29.75S                  

$$

UPPER DESERT
  
CITY           SKY/WX    TMP DP  RH WIND       PRES   REMARKS
HESPERIA         N/A     71  55  56 CALM      29.77S                  
APPLE VALLEY     N/A     62  57  82 CALM      29.82S                  
PALMDALE       CLEAR     79  50  36 SW12      29.94R                  
LANCASTER      CLEAR     71  52  50 W8        29.92S                  
EDWARDS AFB    CLEAR     74  43  32 SW8       29.89S                  
DAGGETT        CLEAR     82  48  30 W8        29.88R                  
29 PALMS N     CLEAR     84  48  28 NW5       29.94S                  
NEEDLES        CLEAR     96  59  29 CALM      29.77R HX  95           

$$

REGIONAL REPORTS
  
CITY           SKY/WX    TMP DP  RH WIND       PRES   REMARKS
SANTA BARBARA  CLEAR     64  61  90 N3        29.87S                  
SANDBERG         N/A     73  40  30 W9        30.08F                  
LAS VEGAS NV   PTCLDY    90  45  21 S8        29.83R                  
PHOENIX AZ     CLEAR     91  64  40 SE3       29.82R                  
TIJUANA        CLOUDY    70  64  83 CALM      29.94S                  
ENSENADA NW      N/A     71  32  23 CALM      29.86S                  

$$

OFFSHORE ISLANDS
  
CITY           SKY/WX    TMP DP  RH WIND       PRES   REMARKS
CATALINA ARPT  FOG       63  63 100 N3        29.93S VSB 1/4          
SAN CLEMENTE I CLOUDY    67  64  90 W8        29.92R                  
SAN NICOLAS IS MOCLDY    63  50  63 W10       29.90R HAZE             

$$

MARINE AND OFFSHORE BUOY REPORTS
  
STATION/POSITION SKY/WX   TEMP    WIND        PRES    VSBY  SWELL
                          AIR SEA DIR/SP/G                  HT/PER/DIR
                          (F)     (DEG/KT/KT) (MB)    (MI)  (FT/S/D)
TANNER BANKS               63 70              1013.1R
S CLEMENTE BASIN           69 74  240/  6/  8 1012.8R         3/180/14
SO. S. ROSA ISLA           62 69  310/ 16/ 19 1012.0R         3/220/14
W. S. BARBARA CH              65                N/A
M. S. BARBARA CH           67 71  240/  8/ 10 1012.1
S. MONICA BASIN            68 71  110/  8/ 12 1011.8
CMP PENDLETON NS              74                N/A           2/220/14
SAN DIEGO BAY                                 1012.4S

$$